Regional Weather Roundup
Issued by NWS

Home | Current Version | Previous Version | Text Only | Print | Product List | Glossary On
Versions: 1 2 3 4 5 6 7 8 9 10 11 12 13 14 15 16 17 18 19 20 21 22 23 24 25 26 27 28 29 30 31 32 33 34 35 36 37 38 39 40 41 42 43 44 45 46 47 48 49 50
000
ASUS43 KMKX 180900
RWRWI

WISCONSIN REGIONAL WEATHER ROUNDUP
NATIONAL WEATHER SERVICE MILWAUKEE/SULLIVAN WI
300 AM CST THU DEC 18 2014

NOTE: "FAIR" INDICATES FEW OR NO CLOUDS BELOW 12,000 FEET WITH NO
SIGNIFICANT WEATHER AND/OR OBSTRUCTIONS TO VISIBILITY.

WIZ001-002-006>008-014>016-023>028-181000-
NORTHWEST WISCONSIN

CITY           SKY/WX    TMP DP  RH WIND       PRES   REMARKS
SUPERIOR ARPT  CLOUDY    19  17  90 CALM      30.35S
ASHLAND        CLOUDY    23  20  88 CALM      30.33S
HAYWARD        CLOUDY    20  15  81 N3        30.29S
SIREN          CLOUDY    18  14  86 CALM      30.32S
CUMBERLAND     CLOUDY    19  16  86 N3        30.29S
RICE LAKE      CLOUDY    22  17  83 N5        30.31S WCI  15
CHETEK         CLOUDY    20  16  84 CALM      30.30S
LADYSMITH      CLOUDY    22  19  88 N3        30.30R
EAU CLAIRE     CLOUDY    21  16  81 CALM      30.30R
MENOMONIE      CLOUDY    21  16  82 CALM      30.31S
NEW RICHMOND   CLOUDY    18  16  92 NW3       30.32R
OSCEOLA        CLOUDY    18  15  89 CALM      30.35S
$$

WIZ003>005-009-010-017-018-181000-
NORTH CENTRAL WISCONSIN

CITY           SKY/WX    TMP DP  RH WIND       PRES   REMARKS
MANITOWISH WTR CLOUDY    21  19  93 NE3       30.25S
ARBOR VITAE    CLOUDY    22  19  89 N5        30.25R WCI  16
WOODRUFF       CLOUDY    22  19  89 N5        30.25R WCI  16
RHINELANDER    CLOUDY    21  18  88 N6        30.24S WCI  13
EAGLE RIVER    CLOUDY    21  19  94 NE6       30.24S WCI  13
LAND O LAKES   CLOUDY    21  19  91 N5        30.25R WCI  14
PHILLIPS       CLOUDY    20  18  89 CALM      30.26S
TOMAHAWK       CLOUDY    22  19  88 CALM      30.26S
MEDFORD        CLOUDY    21  19  89 NE6       30.24S WCI  14
MERRILL        CLOUDY    23  20  90 N5        30.25F WCI  16
$$

WIZ029-030-035-036-043>047-181000-
CENTRAL WISCONSIN

CITY           SKY/WX    TMP DP  RH WIND       PRES   REMARKS
WAUSAU         CLOUDY    24  19  81 N8        30.24F WCI  15
MOSINEE        CLOUDY    23  21  93 N6        30.25F WCI  16
MARSHFIELD     CLOUDY    21  17  84 NW8       30.25S WCI  11
STEVENS POINT  CLOUDY    21  17  85 CALM      30.26S
WAUPACA        CLOUDY    25  19  77 NW5       30.26F WCI  19
WAUTOMA        NOT AVBL
WISC RAPIDS    CLOUDY    21  15  78 W3        30.28S
CAMP DOUGLAS   NOT AVBL
$$

WIZ011>013-019>022-031-037>040-048>050-181000-
NORTHEAST WISCONSIN

CITY           SKY/WX    TMP DP  RH WIND       PRES   REMARKS
ANTIGO         CLOUDY    22  20  91 N7        30.24S WCI  13
SHAWANO        CLOUDY    28  23  79 N5        30.27F WCI  23
OCONTO         CLOUDY    27  24  86 CALM      30.28R
STURGEON BAY   CLOUDY    27  19  74 N13       30.26S WCI  16
GREEN BAY      CLOUDY    27  22  81 N6        30.26F WCI  20
MANITOWOC      NOT AVBL
APPLETON       CLOUDY    25  19  80 NW7       30.25F WCI  17
CLINTONVILLE   CLOUDY    27  21  80 N6        30.26F WCI  20
OSHKOSH        CLOUDY    24  17  74 NW7       30.25F WCI  16
$$

WIZ032>034-041-042-053>061-181000-
SOUTHWEST WISCONSIN

CITY           SKY/WX    TMP DP  RH WIND       PRES   REMARKS
LA CROSSE      CLOUDY    20  13  74 NW3       30.32S
SPARTA         CLOUDY    20  14  78 CALM      30.31R
VIROQUA        CLOUDY    16  14  92 NW3       30.26S
BOSCOBEL       CLEAR     13   9  84 CALM      30.31S
PRAIRIE DU CHI CLEAR     16  13  88 CALM      30.31S
PLATTEVILLE    CLEAR     16  13  90 CALM      30.28S
$$

WIZ056-057-062-063-064-067-068-181000-
SOUTH CENTRAL WISCONSIN

CITY           SKY/WX    TMP DP  RH WIND       PRES   REMARKS
REEDSBURG      CLOUDY    19  15  84 CALM      30.28R
BARABOO/DELLS  CLOUDY    19  15  84 CALM      30.27S
LONE ROCK      NOT AVBL
MINERAL POINT  CLEAR     18  14  86 CALM      30.26S
MADISON        CLEAR     16  12  84 CALM      30.26F
MIDDLETON      CLEAR     18  14  82 W5        30.27F WCI  11
WATERTOWN      CLOUDY    19  16  88 W3        30.27S
MONROE         CLEAR     19  16  86 N3        30.25S
JANESVILLE     CLEAR     19  14  79 CALM      30.27S
$$

WIZ051-052-058>065-066-070>072-181000-
SOUTHEAST WISCONSIN

CITY           SKY/WX    TMP DP  RH WIND       PRES   REMARKS
MILWAUKEE      CLEAR     20  13  74 W9        30.26F WCI   9
WAUKESHA       CLEAR     18  14  86 W6        30.27F WCI   9
MILWAUKEE/TIMM PTCLDY    19  14  79 W6        30.28S WCI  11
RACINE         CLEAR     18  13  80 CALM      30.28F
BURLINGTON     CLEAR     17  13  85 NW3       30.26F
KENOSHA        CLEAR     18  14  84 NW5       30.26F WCI  11
FOND DU LAC    CLOUDY    24  17  74 CALM      30.26F
SHEBOYGAN      CLOUDY    24  18  77 NW6       30.25F WCI  17
WEST BEND      CLOUDY    23  18  80 W5        30.26R WCI  17
JUNEAU         CLOUDY    21  17  83 CALM      30.27S
$$

LSZ147-162-181000-
LAKE SUPERIOR

STATION/POSITION TIME  TEMP    WIND        PRES    WAVE
                       AIR SEA DIR/SP/G            HT/PER
                 (UTC) (F)     (DEG/KT/KT) (MB)    (FT/S)
DEVILS ISLAND    0800   26      90/  6/  8 1028.3R
PORT WING        0840   24     320/  2/  3 1027.4R
SAXON HARBOR     0800   25        CALM     1026.8R
$$

LMZ867-665-643>646-181000-
LAKE MICHIGAN

STATION/POSITION TIME  TEMP    WIND        PRES    WAVE
                       AIR SEA DIR/SP/G            HT/PER
                 (UTC) (F)     (DEG/KT/KT) (MB)    (FT/S)
CHAMBERS ISLAND  0800   29     340/ 13/ 18 1024.4R
NORTHPORT PIER   0800   29     360/ 15/ 21 1023.7R
SISTER BAY       0813          360/ 23/ 28   N/A
ALGOMA LAKESHORE 0814          330/  6/  9   N/A
KEWAUNEE LAKESHO 0800   28     300/  5/  7 1023.8R
SHEBOYGAN LAKESH 0800   24 34  300/ 10/ 13 1025.8F
PORT WASHINGTON  0800   22     300/  5/  9 1025.4S
MILWAUKEE LAKESH 0800   21     290/ 10/ 14   N/A
KENOSHA   LAKESH 0800   20     280/  8/ 13 1025.4R
$$

TC  - TEMPERATURE IN CELSIUS
VSB - VISIBILITY IN STATUTE MILES
WCI - WIND CHILL INDEX
HX  - HEAT INDEX




USA.gov is the U.S. government's official web portal to all federal, state and local government web resources and services.